Hourly Weather Roundup
Issued by NWS Central Illinois

Home | Current Version | Previous Version | Text Only | Print | Product List | Glossary On
Versions: 1 2 3 4 5 6 7 8 9 10 11 12 13 14 15 16 17 18 19 20 21 22 23 24 25 26 27 28 29 30 31 32 33 34 35 36 37 38 39 40 41 42 43 44 45 46 47 48 49 50
000
NZUS43 KILX 232110
HWRILX

AREA WEATHER ROUNDUP
NATIONAL WEATHER SERVICE, LINCOLN IL
400 PM CDT THU MAR 23 2017


CITY           SKY/WX    TMP DP  RH WIND       PRES   REMARKS
BLOOMINGTON    CLOUDY    45  28  51 S14       30.16F
CHAMPAIGN      CLOUDY    50  24  36 SE15      30.18F
DECATUR        CLOUDY    44  34  67 SE16      30.16F
EFFINGHAM      CLOUDY    44  38  78 E10       30.22F
FLORA          PTSUNNY   48  41  77 SE9       30.21F
GALESBURG      CLOUDY    41  38  88 SE15G24   30.06F WCI  33
JACKSONVILLE   PTSUNNY   47  39  73 SE16      30.10F
LACON          CLOUDY    44  30  59 S12       30.14F
LAWRENCEVILLE  CLOUDY    48  32  53 SE15      30.24F
LITCHFIELD     PTSUNNY   46  40  77 SE14G22   30.13F
$$


CITY           SKY/WX    TMP DP  RH WIND       PRES   REMARKS
LINCOLN        CLOUDY    42  39  90 SE12      30.15F
MACOMB         PTSUNNY   46  42  86 SE20      30.08F
MATTOON        CLOUDY    46  32  58 S12       30.18F
MT CARMEL AP   CLOUDY    49  36  60 SE13      30.22F
OLNEY-NOBLE AP PTSUNNY   46  39  76 SE12      30.21F
PARIS          CLOUDY    51  30  43 SE15      30.21F
PEORIA         LGT RAIN  41  35  79 SE12      30.14F WCI  34
PONTIAC        DRIZZLE   47  31  54 SE10      30.18F
RANTOUL        LGT RAIN  49  29  47 SE14      30.18F
SPRINGFIELD    CLOUDY    45  40  82 SE15      30.13F
TAYLORVILLE    CLOUDY    43  39  87 SE16G24   30.14F
$$

...REGIONAL REPORTS...


CITY           SKY/WX    TMP DP  RH WIND       PRES   REMARKS
CHICAGO O`HARE CLOUDY    48  24  39 S16G24    30.18F
KANKAKEE       CLOUDY    51  25  35 SE16      30.20F
MOLINE         CLOUDY    41  34  76 SE14G26   30.07F WCI  33
MOUNT STERLING MOSUNNY   49  39  67 S18G24    30.05F
MOUNT VERNON   CLOUDY    53  42  66 SE10      30.20F
PITTSFIELD     SUNNY     52  40  63 SE16G22   30.07F
QUINCY         SUNNY     54  39  57 SE17G24   30.01F
ROCKFORD       CLOUDY    45  23  42 S20       30.15F
$$


CITY           SKY/WX    TMP DP  RH WIND       PRES   REMARKS
BURLINGTON     PTSUNNY   47  39  74 SE18G24   30.02F
CEDAR RAPIDS   CLOUDY    42  37  82 SE18      29.97F WCI  34
DES MOINES     CLOUDY    56  36  47 SE17G23   29.87F
KIRKSVILLE     SUNNY     64  37  36 SE20G28   29.92F
OTTUMWA        MOSUNNY   51  36  56 SE23G30   29.89F
ST LOUIS       MOSUNNY   57  41  55 SE16      30.10F
$$


CITY           SKY/WX    TMP DP  RH WIND       PRES   REMARKS
TERRE HAUTE    CLOUDY    53  26  35 S10       30.22F
EVANSVILLE     MOSUNNY   50  38  63 SE9       30.25F
INDIANAPOLIS   CLOUDY    54  24  31 SE10      30.23F
LAFAYETTE      CLOUDY    51  24  34 SE8       30.21F
MADISON        CLOUDY    45  19  35 S21       30.11F
MILWAUKEE      CLOUDY    41  23  48 S16       30.17F WCI  33
$$






USA.gov is the U.S. government's official web portal to all federal, state and local government web resources and services.